This is the latest recevied weather packets stored in our database for station/object IZ4UFQ-10. If no packets are shown the sender has not sent any weather packets the latest 1 day(s).
| Time | Temp. | Humidity | Pressure | Rain* | Wind** | Luminosity | Snow |
|---|---|---|---|---|---|---|---|
| 1778046445 | 13.33° C | 95% | 1009.8 hPa | 3.3 mm | - | 14 W/m² | - |
| 1778046145 | 13.33° C | 95% | 1009.8 hPa | 3.05 mm | - | 16 W/m² | - |
| 1778045845 | 13.33° C | 95% | 1009.8 hPa | 2.79 mm | - | 16 W/m² | - |
| 1778045544 | 13.33° C | 95% | 1009.7 hPa | 3.05 mm | - | 18 W/m² | - |
| 1778045244 | 13.33° C | 95% | 1009.7 hPa | 3.05 mm | - | 19 W/m² | - |
| 1778044944 | 13.33° C | 95% | 1009.7 hPa | 3.81 mm | - | 21 W/m² | - |
| 1778044643 | 13.33° C | 95% | 1009.9 hPa | 4.32 mm | - | 16 W/m² | - |
| 1778044043 | 13.33° C | 95% | 1010.1 hPa | 5.59 mm | - | 9 W/m² | - |
| 1778043442 | 13.33° C | 95% | 1010.1 hPa | 6.86 mm | - | 9 W/m² | - |
| 1778043142 | 13.33° C | 95% | 1010.3 hPa | 6.86 mm | - | 7 W/m² | - |
| 1778042842 | 13.33° C | 95% | 1010.3 hPa | 7.11 mm | - | 5 W/m² | - |
| 1778042241 | 13.33° C | 95% | 1010.1 hPa | 6.86 mm | - | 0 W/m² | - |
| 1778041941 | 13.33° C | 95% | 1009.8 hPa | 6.35 mm | - | 0 W/m² | - |
| 1778041641 | 13.33° C | 95% | 1009.9 hPa | 6.1 mm | - | 0 W/m² | - |
| 1778041340 | 13.33° C | 95% | 1010.2 hPa | 5.33 mm | - | 0 W/m² | - |
| 1778041040 | 13.33° C | 95% | 1010.3 hPa | 4.57 mm | - | 0 W/m² | - |
| 1778040740 | 13.33° C | 95% | 1010.5 hPa | 3.56 mm | - | 0 W/m² | - |
| 1778040439 | 13.33° C | 95% | 1010.3 hPa | 2.79 mm | - | 0 W/m² | - |
| 1778040139 | 13.33° C | 95% | 1010.3 hPa | 2.29 mm | - | 0 W/m² | - |
| 1778039839 | 13.33° C | 95% | 1010.3 hPa | 1.78 mm | - | 0 W/m² | - |
| 1778039539 | 13.33° C | 95% | 1010.2 hPa | 1.78 mm | - | 0 W/m² | - |
| 1778039238 | 13.33° C | 95% | 1010.2 hPa | 1.52 mm | - | 0 W/m² | - |
| 1778038938 | 13.33° C | 95% | 1010.2 hPa | 1.52 mm | - | 0 W/m² | - |
| 1778038638 | 13.33° C | 95% | 1010.1 hPa | 2.03 mm | - | 0 W/m² | - |
| 1778038337 | 13.33° C | 95% | 1010.1 hPa | 2.03 mm | - | 0 W/m² | - |
* Rain latest hour (hover to see other rain measurements)
** Current wind speed in m/s (hover to see current wind gust speed)